Location: Byszew
(52.1813°N, 19.2693°E)
Time: 20:17:25
(UTC+00:00)

H-2A R/B - Pass Details

Date: 03 March 2021
Orbit: 732 x 837 km, 98.2° (Epoch: 15 April)

Event Time Altitude Azimuth Distance (km) Brightness Sun altitude
Rises 18:01:49 0° 189° (S) 3,371 5.3 -15.4°
Reaches altitude 10° 18:04:20 10° 197° (SSW) 2,446 4.7 -15.8°
Maximum altitude 18:09:22 38° 265° (W) 1,269 3.7 -16.5°
Drops below altitude 10° 18:14:26 10° 332° (NNW) 2,455 5.2 -17.3°
Sets 18:16:58 0° 341° (NNW) 3,385 5.8 -17.7°
